Powrót do katalogu

INTELSAT 33E DEB

AktywnyGEO
NORAD 64397·DEBRIS· XX

Wystrzelony Aug 24, 2016 z Guiana Space Centre

Loading…

TLE

ŚwieżeSource: Space-Track

Epoka: Sep 13, 2026, 15:10 UTC

1 64397U 16053AB  26256.63241247  .00000095  00000-0  00000-0 0  9998
2 64397   1.7651  79.6929 0052219  95.9456 265.4725  0.99470213  6787

Śledź INTELSAT 33E DEB w czasie rzeczywistym z AllMySat

Download on the App Store